GSAT0202 (GALILEO 6)

Last updated on Jan. 15, 2021, 6:30 a.m. UTC

1 40129U 14050B   21014.41404487 -.00000115  00000-0  00000-0 0  9994
2 40129  50.5608 352.0050 1649947 107.0703 271.6407  1.85519934 43756
UTC
Height (km)
Latitude
Longitude
Inclination
Orbital Period
UTC large
Height (km)
Speed (km/s)
/
Latitude / Longitude
Inclination (degrees)
Orbital Period (minutes)
Azimuth
Elevation
Range (km)
Doppler Factor
iOS Compass Heading
iOS Angle

Next 30 passes for location: Hong Kong

Rise time Rise Azimuth (degrees) Set time Set Azimuth (degrees) Duration Max altitude (degrees)

No matching passes for this satellites